STARLINK-34212, 64139

Orbit data source: Space-Track

STARLINK-34212, 64139 is a payload satellite owned by SpaceX/Seattle (US) in LEO that was launched on Sat, 24 May 2025 UTC via an FALCON 9 launch vehicle from the Air Force Eastern Test Range (AFETR). Payload-class satellites include a variety of spacecraft equipped with specific instruments for various scientific and technological missions. These include communications satellites like Starlink; space stations such as the ISS; scientific satellites like the Hubble; Earth observation satellites from companies like Planet Labs, Umbra, and HawkEye 360; GPS; miniature CubeSats for education and research; and military/defense satellites.

Loading next visibility...
Identifier
64139, 2025-111S
Orbit
LEO
Country
Flag of USUS
Related business
Manufacturer
SpaceX/Seattle
Mission
Operational Commercial Communications
Bus & Motor
STARLINK V2MO, Unknown motor
Mass
575 kg wet, ~530 kg dry
Launch date (UTC)
2025-05-24 (1 year ago)
Launch vehicle
FALCON 9
Launch site
Air Force Eastern Test Range (AFETR)
Object type
Payload
Rocket body
Debris
Shape & HBR
Box + 2 Pan, 17.7 m
Radar Cross Section
36.964 m², Large (>1 m²)

Expand to show TLE details & history
Last TLE update: 17 hours ago

TLE from 17 hours ago
0 STARLINK-34212
1 64139U 25111S   26171.13858037  .00013350  00000-0  49360-3 0  9992
2 64139  42.9989 219.1160 0001650 243.3638 116.7045 15.27590782 61138
Epoch: 2026-06-20T03:19Z
TLE epoch observation values (Epoch: 2026-06-20T03:19:33.343Z)
Latitude
-0.00002°
Longitude
-99.13045°
Altitude
483.301 km
Speed
7.625 km/s
True Right ascension
14h 36m 27s
True Declination
0° 00' 00"
Sunlit
Object was in full shadow at epoch
Visualization orbit readout
Latitude
Unknown
Longitude
Unknown
Altitude
Unknown
Speed
Unknown
Apparent Right ascension
Unknown
Apparent Declination
Unknown
Sunlit
N/A
Visualization observer readout
Local Sidereal Time
07:17:17
Azimuth
Unknown
Elevation
Unknown
Doppler factor
Unknown
Orbital elements
Apogee altitude
486.095 km
Perigee altitude
483.83 km
Semi-major axis
6,863.099 km
Eccentricity
0.00017
Inclination
42.9989°
RAAN
219.116°
Arg. of periapsis
243.3638°
True anomaly
116.72139°
Mean anomaly
116.7045°
Eccentric anomaly
116.71294°
Mean motion
3.81736 °/min
Orbital period
94.31 mins
BSTAR
0.0004936
Loading maneuver chart data...
Computing Atmospheric mass density...
Loading historical data...
Loading historical data...
Loading historical data...
Loading historical data...
Loading historical data...
Loading historical data...
Loading historical data...

Documentation

Showing up to 5 results
|